CW3403 Weather Reports


time (UTC)temp
C
wind
direction
speed
KPH
gust
KPH
rain 1hr
cm
rain 24hr
cm
rain mn
cm
humidity
%
barometer
mb
20260502183232 9 42 4.8 4.8 0.00 0.03 0.03 50 1018.0
20260502182727 10 285 3.2 3.2 0.00 0.03 0.03 47 1017.9
20260502182223 10 314 6.4 8.0 0.00 0.03 0.03 47 1017.9
20260502181720 10 358 4.8 4.8 0.00 0.03 0.03 44 1018.1
20260502181219 8 312 3.2 4.8 0.00 0.03 0.03 48 1018.3
20260502180716 9 11 3.2 4.8 0.00 0.03 0.03 49 1018.0
20260502180214 9 271 1.6 1.6 0.00 0.03 0.03 51 1018.1
20260502170137 10 305 8.0 9.7 0.00 0.03 0.03 49 1018.4
20260502164124 8 314 8.0 11.3 0.00 0.03 0.03 53 1018.4
20260502163620 8 355 9.7 12.9 0.00 0.03 0.03 51 1018.4
20260502163117 9 160 1.6 3.2 0.00 0.03 0.03 49 1018.5
20260502162614 9 312 8.0 9.7 0.00 0.03 0.03 50 1018.6
20260502162111 9 285 4.8 9.7 0.00 0.03 0.03 50 1018.6
20260502161608 8 236 4.8 4.8 0.00 0.03 0.03 47 1018.5
20260502161105 8 308 3.2 4.8 0.00 0.03 0.03 50 1018.6
20260502160603 9 342 4.8 9.7 0.00 0.03 0.03 52 1018.6
20260502152016 8 6 6.4 9.7 0.00 0.03 0.03 54 1018.4
20260502151512 8 327 6.4 9.7 0.00 0.03 0.03 52 1018.3
20260502151010 7 320 4.8 4.8 0.00 0.03 0.03 58 1018.2
20260502150508 8 311 9.7 12.9 0.00 0.03 0.03 57 1018.6
20260502130352 6 227 0.0 0.0 0.00 0.03 0.03 71 1018.3
20260502123335 4 328 1.6 3.2 0.00 0.03 0.03 78 1018.1
20260502122832 4 310 1.6 1.6 0.00 0.03 0.03 79 1018.0
20260502122327 4 302 0.0 1.6 0.00 0.03 0.03 80 1018.0
20260502121827 3 291 1.6 1.6 0.00 0.03 0.03 81 1018.0
20260502121323 3 289 4.8 8.0 0.00 0.03 0.03 86 1018.3
20260502120820 3 301 0.0 0.0 0.00 0.03 0.03 96 1018.3
20260502120316 3 311 1.6 1.6 0.00 0.03 0.03 99 1018.1
20260502115814 3 261 0.0 0.0 0.00 0.03 0.03 99 1018.1
20260502115311 2 278 0.0 0.0 0.00 0.03 0.03 99 1018.1
20260502114808 2 299 0.0 0.0 0.00 0.03 0.03 99 1018.1
20260502114304 2 286 0.0 0.0 0.00 0.03 0.03 99 1017.7
20260502113801 2 287 0.0 0.0 0.00 0.03 0.03 99 1018.0
20260502113259 2 278 3.2 3.2 0.00 0.03 0.03 99 1018.2
20260502112757 1 279 0.0 0.0 0.00 0.03 0.03 99 1018.0
20260502112254 1 296 0.0 0.0 0.00 0.03 0.03 99 1018.0
20260502111751 2 279 0.0 0.0 0.00 0.03 0.03 99 1018.1
20260502111249 1 279 0.0 0.0 0.00 0.03 0.03 99 1018.1
20260502110746 1 278 0.0 0.0 0.00 0.03 0.03 99 1018.3
20260502110244 0 278 0.0 0.0 0.00 0.03 0.03 99 1018.2
20260502105742 0 278 0.0 0.0 0.00 0.03 0.03 99 1017.9
20260502105237 0 278 0.0 0.0 0.00 0.03 0.03 99 1018.1
20260502104736 0 278 0.0 0.0 0.00 0.03 0.03 99 1017.9
20260502104233 0 278 0.0 0.0 0.00 0.03 0.03 99 1017.8
20260502103731 0 278 0.0 0.0 0.00 0.03 0.03 99 1017.9
20260502103228 0 278 0.0 0.0 0.00 0.03 0.03 99 1018.0
20260502102725 0 278 0.0 0.0 0.00 0.03 0.03 99 1017.8
20260502102221 0 278 0.0 0.0 0.00 0.03 0.03 99 1017.9
20260502101719 0 278 0.0 0.0 0.00 0.03 0.03 99 1017.6
20260502101217 0 278 0.0 0.0 0.00 0.03 0.03 99 1017.9
20260502100715 0 278 0.0 0.0 0.00 0.03 0.03 99 1017.7
20260502100213 0 278 0.0 0.0 0.00 0.03 0.03 99 1017.7
20260502091147 0 279 0.0 0.0 0.00 0.03 0.03 99 1017.9
20260502090644 1 279 0.0 0.0 0.00 0.03 0.03 99 1018.0
20260502090142 1 279 0.0 0.0 0.00 0.03 0.03 99 1018.0
20260502080110 1 271 0.0 0.0 0.00 0.03 0.03 99 1017.7
20260502071043 1 272 0.0 0.0 0.00 0.03 0.03 99 1017.4
20260502070541 1 272 0.0 0.0 0.00 0.03 0.03 99 1017.6
20260502070039 1 272 0.0 0.0 0.00 0.03 0.03 99 1017.6
20260502065537 1 271 0.0 0.0 0.00 0.03 0.03 99 1017.4
20260502065034 1 272 0.0 0.0 0.00 0.03 0.03 99 1017.7
20260502064533 1 272 0.0 0.0 0.00 0.03 0.03 99 1017.8
20260502064029 1 272 0.0 0.0 0.00 0.03 0.03 99 1017.8
20260502063527 1 272 0.0 0.0 0.00 0.03 0.03 99 1017.7
20260502063025 1 272 0.0 0.0 0.00 0.03 0.03 99 1017.9
20260502062522 1 272 0.0 0.0 0.00 0.03 0.03 99 1017.8
20260502062020 1 271 0.0 0.0 0.00 0.03 0.03 99 1017.9
20260502061518 1 272 0.0 0.0 0.00 0.03 0.03 99 1018.1
20260502061015 1 272 0.0 0.0 0.00 0.03 0.03 99 1017.9
20260502060509 1 272 0.0 0.0 0.00 0.03 0.03 99 1017.8
20260502060007 1 272 0.0 0.0 0.00 0.03 0.03 99 1018.2
20260502055504 1 272 0.0 0.0 0.00 0.03 0.03 99 1018.2
20260502055003 1 271 0.0 0.0 0.00 0.03 0.03 99 1018.2
20260502054500 1 272 0.0 0.0 0.00 0.03 0.03 99 1018.1
20260502053958 1 272 0.0 0.0 0.00 0.03 0.03 99 1018.2
20260502053455 1 272 0.0 0.0 0.00 0.03 0.03 99 1018.1
20260502052953 1 272 0.0 0.0 0.00 0.03 0.03 99 1018.2
20260502052451 2 272 0.0 0.0 0.00 0.03 0.03 99 1018.2
20260502051949 2 272 0.0 0.0 0.00 0.03 0.03 99 1018.3
20260502051446 2 272 0.0 0.0 0.00 0.03 0.03 99 1017.9
20260502050943 2 274 0.0 0.0 0.00 0.03 0.03 99 1018.0
20260502050440 2 275 0.0 0.0 0.00 0.03 0.03 99 1018.3
20260502045937 2 275 0.0 0.0 0.00 0.03 0.03 99 1017.8
20260502045434 2 275 0.0 0.0 0.00 0.03 0.03 99 1018.2
20260502044931 2 274 0.0 0.0 0.13 0.03 0.03 99 1018.1
20260502044426 2 274 0.0 0.0 0.13 0.03 0.03 99 1018.1
20260502043924 2 274 0.0 0.0 0.00 0.00 0.00 99 1018.0
20260502043422 2 274 0.0 0.0 0.00 0.00 0.00 99 1018.3
20260502042921 3 274 0.0 0.0 0.00 0.00 0.00 99 1018.2
20260502042418 3 274 0.0 0.0 0.00 0.00 0.00 99 1018.3
20260502041915 3 271 0.0 0.0 0.00 0.00 0.00 99 1018.5
20260502041413 3 273 0.0 0.0 0.00 0.00 0.00 99 1018.3
20260502040910 3 273 0.0 0.0 0.00 0.00 0.00 99 1018.5
20260502040406 3 273 0.0 0.0 0.00 0.00 0.00 98 1018.3
20260502035903 3 273 0.0 0.0 0.00 0.23 0.23 98 1018.2
20260502035359 3 269 0.0 0.0 0.00 0.23 0.23 98 1018.4
20260502034856 4 253 0.0 0.0 0.00 0.23 0.23 98 1018.4
20260502034355 3 273 0.0 0.0 0.00 0.23 0.23 98 1018.3
20260502033853 4 259 0.0 0.0 0.00 0.23 0.23 97 1018.3
20260502033350 4 254 0.0 0.0 0.00 0.23 0.23 97 1018.1
20260502032847 4 252 0.0 0.0 0.00 0.23 0.23 97 1018.3
20260502032343 4 262 0.0 0.0 0.00 0.23 0.23 96 1018.5
20260502031841 5 319 0.0 0.0 0.00 0.23 0.23 95 1018.2
20260502031339 5 319 0.0 0.0 0.00 0.23 0.23 95 1018.4
20260502030837 5 319 0.0 0.0 0.00 0.23 0.23 94 1018.2
20260502030335 5 320 0.0 0.0 0.00 0.23 0.23 94 1018.3
20260502025832 5 44 0.0 0.0 0.00 0.23 0.23 93 1018.4
20260502025330 5 44 0.0 0.0 0.00 0.23 0.23 92 1018.2
20260502024827 5 147 1.6 1.6 0.00 0.23 0.23 92 1018.0
20260502024325 6 296 1.6 1.6 0.18 0.23 0.23 92 1018.4
20260502023823 6 295 3.2 3.2 0.18 0.23 0.23 92 1018.5
20260502023320 6 281 0.0 0.0 0.00 0.20 0.20 92 1018.4
20260502022818 6 271 0.0 0.0 0.00 0.20 0.20 90 1018.2
20260502022314 6 280 0.0 0.0 0.18 0.20 0.20 89 1018.3
20260502021811 6 303 0.0 0.0 0.00 0.18 0.18 87 1017.8
20260502021308 6 310 0.0 0.0 0.00 0.18 0.18 86 1017.6
20260502020805 6 307 0.0 0.0 0.00 0.18 0.18 86 1017.8
20260502020303 6 327 0.0 0.0 0.00 0.18 0.18 85 1017.6
20260502015800 6 328 0.0 0.0 0.00 0.18 0.18 85 1017.5
20260502015256 6 309 0.0 1.6 0.00 0.18 0.18 87 1017.6
20260502014754 6 311 0.0 0.0 0.00 0.18 0.18 89 1017.7
20260502014250 5 299 1.6 1.6 0.00 0.18 0.18 93 1017.6
20260502013747 5 303 0.0 0.0 0.00 0.18 0.18 94 1017.6
20260502013242 5 287 0.0 0.0 0.00 0.18 0.18 94 1017.3
20260502012740 5 287 0.0 0.0 0.00 0.18 0.18 93 1017.3
20260502012237 5 287 0.0 0.0 0.00 0.18 0.18 92 1017.1
20260502011735 5 287 0.0 0.0 0.00 0.18 0.18 92 1016.8
20260502011230 5 287 0.0 0.0 0.00 0.18 0.18 91 1016.9
20260502010728 5 287 0.0 0.0 0.00 0.18 0.18 89 1016.9
20260502010224 5 287 0.0 0.0 0.00 0.18 0.18 88 1016.7
20260502005721 5 287 0.0 0.0 0.00 0.18 0.18 88 1016.6
20260502005219 6 287 0.0 0.0 0.00 0.18 0.18 87 1016.6
20260502004715 6 297 0.0 0.0 0.00 0.18 0.18 86 1016.3
20260502004212 6 297 0.0 0.0 0.00 0.18 0.18 85 1016.4
20260502003710 6 297 0.0 0.0 0.00 0.18 0.18 85 1016.5
20260502003207 6 297 0.0 0.0 0.00 0.18 0.18 83 1016.5
20260502002702 6 297 0.0 0.0 0.00 0.18 0.18 81 1016.8
20260502002201 6 296 0.0 0.0 0.00 0.18 0.18 81 1016.8
20260502001657 7 296 1.6 1.6 0.00 0.18 0.18 82 1017.0
20260502001155 7 284 0.0 0.0 0.00 0.18 0.18 81 1016.9
20260502000653 7 298 0.0 0.0 0.00 0.18 0.18 78 1017.0
20260502000150 7 333 1.6 1.6 0.00 0.18 0.18 78 1016.4
20260501235646 7 298 3.2 3.2 0.00 0.18 0.18 78 1016.3
20260501235142 7 309 0.0 0.0 0.00 0.18 0.18 77 1016.2
20260501234637 7 319 1.6 1.6 0.00 0.18 0.18 77 1016.2
20260501234135 7 339 3.2 4.8 0.00 0.18 0.18 76 1016.3
20260501233633 7 334 4.8 9.7 0.00 0.18 0.18 75 1015.9
20260501233130 7 338 4.8 4.8 0.00 0.18 0.18 75 1016.0
20260501232626 8 332 3.2 4.8 0.00 0.18 0.18 75 1016.0
20260501232124 8 345 4.8 4.8 0.00 0.18 0.18 74 1015.9
20260501231621 8 343 4.8 8.0 0.00 0.18 0.18 74 1015.7
20260501231119 8 323 4.8 4.8 0.00 0.18 0.18 75 1016.1
20260501230617 8 2 8.0 11.3 0.00 0.18 0.18 75 1015.9
20260501230115 8 323 3.2 3.2 0.00 0.18 0.18 76 1016.0
20260501225613 8 303 6.4 9.7 0.00 0.18 0.18 78 1015.8
20260501225108 7 349 4.8 4.8 0.00 0.18 0.18 78 1016.1
20260501224606 7 314 4.8 4.8 0.00 0.18 0.18 79 1016.0
20260501224103 7 319 4.8 4.8 0.00 0.18 0.18 79 1016.0
20260501223600 8 359 8.0 12.9 0.00 0.18 0.18 78 1015.9
20260501223055 8 1 3.2 4.8 0.00 0.18 0.18 76 1015.8
20260501222552 8 336 6.4 9.7 0.00 0.18 0.18 73 1015.9
20260501222049 8 0 9.7 12.9 0.00 0.18 0.18 72 1015.9
20260501221546 9 343 9.7 11.3 0.00 0.18 0.18 71 1015.7
20260501221043 8 286 6.4 8.0 0.00 0.18 0.18 72 1015.5
20260501220541 8 314 6.4 8.0 0.00 0.18 0.18 72 1015.7
20260501220037 8 338 8.0 11.3 0.00 0.18 0.18 72 1015.7
20260501215533 8 327 4.8 4.8 0.00 0.18 0.18 74 1015.7
20260501215029 8 300 11.3 14.5 0.00 0.18 0.18 74 1015.7
20260501214525 8 331 9.7 12.9 0.00 0.18 0.18 73 1015.8
20260501214020 8 293 8.0 9.7 0.00 0.18 0.18 72 1015.9
20260501213518 9 343 6.4 11.3 0.00 0.18 0.18 72 1015.7
20260501213014 9 312 8.0 9.7 0.00 0.18 0.18 71 1015.2
20260501212510 9 355 14.5 22.5 0.00 0.18 0.18 69 1015.2
20260501212008 9 76 3.2 8.0 0.00 0.18 0.18 70 1015.5
20260501211504 9 319 8.0 9.7 0.00 0.18 0.18 70 1015.1
20260501211002 9 276 9.7 12.9 0.00 0.18 0.18 72 1014.7
20260501210458 9 5 8.0 9.7 0.00 0.18 0.18 71 1014.8
20260501205955 10 313 1.6 3.2 0.00 0.18 0.18 72 1014.6
20260501205451 10 342 1.6 3.2 0.00 0.18 0.18 71 1014.7
20260501204949 10 301 6.4 8.0 0.00 0.18 0.18 70 1014.7
20260501204444 10 337 8.0 9.7 0.00 0.18 0.18 70 1014.5
20260501203941 10 314 11.3 12.9 0.00 0.18 0.18 73 1014.3
20260501203438 10 311 4.8 4.8 0.00 0.18 0.18 75 1014.2
20260501202935 9 212 4.8 4.8 0.00 0.18 0.18 76 1014.2
20260501202432 10 333 9.7 11.3 0.00 0.18 0.18 74 1014.0
20260501201929 10 336 8.0 11.3 0.00 0.18 0.18 73 1014.2
20260501201426 11 310 11.3 16.1 0.00 0.18 0.18 72 1014.1
20260501200923 10 301 12.9 14.5 0.00 0.18 0.18 72 1013.9
20260501200420 11 302 6.4 8.0 0.00 0.18 0.18 72 1014.0
20260501195917 11 317 6.4 8.0 0.00 0.18 0.18 70 1014.0
20260501195414 11 317 11.3 14.5 0.00 0.18 0.18 70 1014.0
20260501194909 11 349 6.4 9.7 0.00 0.18 0.18 71 1014.0
20260501194405 12 319 4.8 8.0 0.00 0.18 0.18 72 1013.7
20260501193901 12 308 8.0 11.3 0.00 0.18 0.18 69 1013.6
20260501193400 11 260 4.8 9.7 0.00 0.18 0.18 71 1013.6
20260501192857 11 307 6.4 9.7 0.00 0.18 0.18 71 1013.5
20260501192354 11 342 1.6 3.2 0.00 0.18 0.18 75 1013.4
20260501191851 12 334 1.6 1.6 0.00 0.18 0.18 74 1013.3
20260501191348 12 247 0.0 1.6 0.00 0.18 0.18 76 1013.5
20260501190845 12 280 3.2 4.8 0.00 0.18 0.18 74 1013.4
20260501190341 11 244 8.0 8.0 0.00 0.18 0.18 76 1013.3
20260501185836 12 193 6.4 9.7 0.00 0.18 0.18 79 1013.4
20260501185333 11 273 3.2 4.8 0.00 0.18 0.18 81 1013.3
20260501184828 11 194 6.4 9.7 0.00 0.18 0.18 81 1013.3
20260501184325 10 171 4.8 4.8 0.00 0.18 0.18 89 1013.7
20260501183820 9 148 1.6 3.2 0.00 0.18 0.18 89 1013.6